Crawford Co (RSV)

 

Airport Diagram
No Airport Diagram Available
Current Weather/Forecast (VFR Conditions)
METAR KRSV 191815Z AUTO 25014G20KT 10SM CLR 18/02 A2993 RMK AO2 T01820023
TAF

Airport Information

All Charts
General
Chart Name View
TAKEOFF MINIMUMS
ALTERNATE MINIMUMS
TAKEOFF MINIMUMS
ALTERNATE MINIMUMS

Approaches
Chart Name Download
RNAV (GPS) RWY 09
RNAV (GPS) RWY 17
RNAV (GPS) RWY 27
NDB RWY 17
RNAV (GPS) RWY 09
RNAV (GPS) RWY 17
RNAV (GPS) RWY 27
NDB RWY 17


Airport Statistics
Departures Arrivals Local
All Collected Stats since June 2016: 23 9 4
2021 Stats: 1 0 0
April Stats: 0 0 0

Inbound Traffic (Arrivals) - 0

No inbound traffic.


Outbound Traffic (Departures) - 0

No outbound traffic.


Local Traffic (Pattern) - 0

No local traffic.